KINEIS-2A

Last updated on Mon Dec 15 2025 00:02:49 GMT+0000 (Coordinated Universal Time)

1 62932U 25028E 25348.10871171 .00001947 00000+0 31404-3 0 9992 2 62932 98.0114 39.5363 0003240 52.7253 307.4250 14.72549727 45377
UTC large
Height (km)
Speed (km/s)
/
Latitude / Longitude
Inclination (degrees)
Orbital Period (minutes)
Azimuth
Elevation
Range (km)
Doppler Factor

Next 0 passes for location: London (51.5072 / 0.1276)

Sorry there are no passes over London.